Regional Weather Roundup
Issued by NWS

Home | Current Version | Previous Version | Graphics & Text | Print | Product List | Glossary On
Versions: 1 2 3 4 5 6 7 8 9 10 11 12 13 14 15 16 17 18 19 20 21 22 23 24 25 26 27 28 29 30 31 32 33 34 35 36 37 38 39 40 41 42 43 44 45 46 47 48 49 50
000
ASUS43 KBIS 240902
RWRND

NORTH DAKOTA REGIONAL WEATHER ROUNDUP
NATIONAL WEATHER SERVICE BISMARCK ND
400 AM CDT MON APR 24 2017

NOTE: "FAIR" INDICATES FEW OR NO CLOUDS BELOW 12,000 FEET WITH NO
SIGNIFICANT WEATHER AND/OR OBSTRUCTIONS TO VISIBILITY.


NDZ001>003-009>011-017-241000-
NORTHWEST NORTH DAKOTA

CITY           SKY/WX    TMP DP  RH WIND       PRES   REMARKS
WILLISTON      MIX PCPN  31  28  89 E9        29.75F
MINOT          FLURRIES  31  27  85 E9        29.81R
MINOT AFB      LGT SNOW  30  24  78 E9        29.82R
$$

NDZ018>021-031>035-040>046-241000-
SOUTHWEST NORTH DAKOTA

CITY           SKY/WX    TMP DP  RH WIND       PRES   REMARKS
BISMARCK       CLOUDY    33  32  96 NE13      29.73F
DICKINSON      FRZ RAIN  28  27  96 NE16      29.64F VSB 1/4 WCI  16
GARRISON         N/A     29  28  96 E12       29.76F WCI  19
HETTINGER ARPT CLOUDY    31  30  96 NE16      29.62F WCI  20
$$

NDZ004>008-012>016-024-026-027-054-241000-
NORTHEAST NORTH DAKOTA

CITY           SKY/WX    TMP DP  RH WIND       PRES   REMARKS
GRAND FORKS    CLOUDY    35  32  88 NE15      29.81F
GRND FRKS AFB  CLOUDY    32  30  93 E13       29.82F
DEVILS LAKE    CLOUDY    30  26  85 E20G29    29.78F WCI  17
$$

NDZ022-023-025-028>030-036>039-047>053-241000-
SOUTHEAST NORTH DAKOTA

CITY           SKY/WX    TMP DP  RH WIND       PRES   REMARKS
FARGO          CLOUDY    36  30  79 E10       29.73F
JAMESTOWN      CLOUDY    33  31  92 NE16      29.69F
$$





USA.gov is the U.S. government's official web portal to all federal, state and local government web resources and services.